Andover, NJ

10:49 AM EDT on March 29, 2017 (GMT -0400)
Andover

Weather History for K12N - October, 2011

Change the Weather History Date:

Wednesday, October 12, 2011

  Actual Average (KFWN) Record (KFWN)
Temperature  
Mean Temperature 56 °F -  
Max Temperature 59 °F 62 °F 86 °F (1954)
Min Temperature 54 °F 36 °F 23 °F (1964)
Degree Days  
Heating Degree Days 8    
Growing Degree Days 6 (Base 50)    
Moisture  
Dew Point 52 °F    
Average Humidity 83    
Maximum Humidity 97    
Minimum Humidity 67    
Precipitation  
Precipitation 0.09 in - - ()
Sea Level Pressure  
Sea Level Pressure 30.09 in    
Wind  
Wind Speed 1 mph (NE)    
Max Wind Speed 6 mph    
Max Gust Speed -    
Averages and records for this station are not official NWS values.
T = Trace of Precipitation, MM = Missing Value Source: NWS Daily Summary

Daily Weather History Graph

Daily Weather History Graph

Search for Another Location

Airport or City:

Trip Planner

Search our weather history database for the weather conditions in past years. The results will help you decide how hot, cold, wet, or windy it might be!

Date:

Astronomy

Oct. 12, 2011 Rise Set
Actual Time 7:06 AM EDT 6:23 PM EDT
Civil Twilight 6:39 AM EDT 6:51 PM EDT
Nautical Twilight 6:07 AM EDT 7:22 PM EDT
Astronomical Twilight 5:35 AM EDT 7:54 PM EDT
Moon 6:23 PM EDT (10/12) 7:40 AM EDT (10/12)
Length of Visible Light 12h 11m
Length of Day
11h 16m
Full, 100% of the Moon is Illuminated
Oct 12
Full
Oct 19
Last Quarter
Oct 26
New
Nov 2
First Quarter
Nov 10
Full

Hourly Weather History & Observations

Time (EDT) Temp. Dew Point Humidity Pressure Visibility Wind Dir Wind Speed Gust Speed Precip Events Conditions
12:54 AM 57.9 °F 53.1 °F 84% 30.15 in - Calm Calm - N/A   Unknown
1:54 AM 57.0 °F 53.1 °F 87% 30.15 in - Calm Calm - N/A   Unknown
2:54 AM 57.0 °F 52.0 °F 83% 30.15 in - Calm Calm - N/A   Unknown
3:54 AM 57.9 °F 52.0 °F 81% 30.15 in - Calm Calm - N/A   Unknown
4:54 AM 57.0 °F 52.0 °F 83% 30.15 in - Calm Calm - N/A   Unknown
5:54 AM 57.0 °F 52.0 °F 83% 30.16 in - Calm Calm - N/A   Unknown
6:54 AM 57.9 °F 52.0 °F 81% 30.16 in - Calm Calm - N/A   Unknown
7:54 AM 57.9 °F 51.1 °F 78% 30.17 in - Calm Calm - N/A   Unknown
8:54 AM 59.0 °F 50.0 °F 72% 30.17 in - Calm Calm - N/A   Unknown
9:54 AM 57.9 °F 52.0 °F 81% 30.16 in - Calm Calm - N/A   Unknown
10:54 AM 57.9 °F 54.0 °F 87% 30.14 in - Calm Calm - 0.01 in   Unknown
11:54 AM 57.9 °F 54.0 °F 87% 30.12 in - Calm Calm - 0.01 in   Unknown
12:54 PM 57.0 °F 54.0 °F 89% 30.11 in - Variable 4.6 mph - 0.02 in   Unknown
1:54 PM 57.0 °F 53.1 °F 87% 30.08 in - Variable 3.5 mph - N/A   Unknown
2:54 PM 59.0 °F 48.9 °F 69% 30.08 in - Variable 5.8 mph - N/A   Unknown
3:54 PM 59.0 °F 48.0 °F 67% 30.05 in - NE 5.8 mph - N/A   Unknown
4:54 PM 57.0 °F 48.0 °F 72% 30.03 in - Calm Calm - N/A   Unknown
5:54 PM 55.9 °F 48.9 °F 77% 30.03 in - Variable 3.5 mph - N/A   Unknown
6:54 PM 55.0 °F 50.0 °F 83% 30.02 in - Calm Calm - N/A   Unknown
7:54 PM 55.0 °F 50.0 °F 83% 30.01 in - NE 3.5 mph - N/A   Unknown
8:54 PM 55.0 °F 51.1 °F 86% 30.00 in - Variable 3.5 mph - N/A   Unknown
9:54 PM 55.0 °F 51.1 °F 86% 29.98 in - Variable 4.6 mph - N/A   Unknown
10:54 PM 54.0 °F 53.1 °F 97% 29.97 in - Variable 3.5 mph - 0.05 in   Unknown
11:54 PM 54.0 °F 53.1 °F 97% 29.96 in - Variable 3.5 mph - N/A   Unknown